Flag for U.S.A. Weather past 2 weeks in Kodiak, Alaska, U.S.A.

Now
31 °F

Clear.


Feels Like: 19 °F
Forecast: 32 / 34 °F
Wind: 17 mph from Northwest

Location: Kodiak Weather Reporting Station

Current Time: Jan 29, 2015 at 3:46:03 AM

Latest Report: Jan 29, 2015 at 2:53 AM


Visibility: 10 mi

Pressure: 29.89 "Hg

Humidity: 67%

Dew point: 21 °F

Location of KodiakLocation

Historic Weather in Kodiak — Graph

°F

Kodiak temperature yesterday

Maximum temperature yesterday: 39 °F (at 4:53 PM)
Minimum temperature yesterday: 32 °F (at 11:53 PM)
Average temperature yesterday: 37 °F

Past Weeks' High & Low Weather Summary

 TemperatureHumidityPressure
High44 °F (Jan 14, 12:53 PM)100% (Jan 14, 11:53 AM)29.90 "Hg (Jan 14, 11:53 AM)
Low17 °F (Jan 25, 9:53 PM)41% (Jan 24, 12:53 PM)28.54 "Hg (Jan 15, 3:57 AM)
Average35 °F84%29.38 "Hg
* Reported Jan 14 2:53 AM — Jan 29 2:53 AM, Kodiak, Weather by CustomWeather, © 2014

Note: Actual official high and low records may vary slightly from our data, if they occured in-between our weather recording intervals... More about our weather records

Advertising

Kodiak weather history for previous 24 hours

 ConditionsComfort  
Time TempWeatherWind HumidityBarometerVisibility
2:53 AM
Jan 29
31 °FPassing clouds.17 mph67%29.89 "Hg10 mi
1:53 AM31 °FPassing clouds.8 mph67%29.89 "Hg10 mi
12:53 AM32 °FPassing clouds.7 mph66%29.88 "Hg10 mi
11:53 PM
Jan 28
32 °FPartly cloudy.22 mph69%29.86 "Hg10 mi
10:53 PM33 °FClear.17 mph75%29.86 "Hg10 mi
9:53 PM34 °FOvercast.13 mph85%29.85 "Hg10 mi
8:55 PM36 °FOvercast.12 mph85%29.84 "Hg10 mi
7:53 PM37 °FLight rain. Mostly cloudy.8 mph86%29.83 "Hg10 mi
6:53 PM38 °FLight rain. Mostly cloudy.8 mph97%29.83 "Hg9 mi
5:53 PM38 °FLight rain. Mostly cloudy.13 mph97%29.82 "Hg10 mi
4:53 PM39 °FLight rain. Fog.18 mph93%29.81 "Hg4 mi
3:53 PM38 °FLight rain. Fog.16 mph100%29.82 "Hg4 mi
2:53 PM38 °FLight rain. Fog.23 mph97%29.82 "Hg3 mi
1:53 PM38 °FLight rain. Fog.23 mph97%29.83 "Hg3 mi
12:53 PM38 °FLight rain. Fog.23 mph97%29.83 "Hg3 mi
11:53 AM38 °FLight rain. Fog.23 mph97%29.84 "Hg3 mi
10:53 AM38 °FLight rain. Fog.21 mph97%29.84 "Hg3 mi
9:53 AM38 °FLight rain. Fog.21 mph97%29.83 "Hg5 mi
8:53 AM36 °FLight rain. Fog.23 mph100%29.83 "Hg3 mi
7:53 AM38 °FLight rain. Fog.29 mph97%29.82 "Hg5 mi
6:53 AM38 °FLight rain. Fog.26 mph93%29.82 "Hg5 mi
5:53 AM37 °FLight rain. Fog.26 mph96%29.82 "Hg5 mi
4:53 AM37 °FLight snow. Fog.28 mph96%29.82 "Hg5 mi
3:53 AM37 °FLight rain. Fog.28 mph96%29.82 "Hg6 mi
Weather by CustomWeather, © 2014

See weather overviewHow to use our weather pages